Date,TemperatureHighF,TemperatureAvgF,TemperatureLowF,DewpointHighF,DewpointAvgF,DewpointLowF,HumidityHigh,HumidityAvg,HumidityLow,PressureMaxIn,PressureMinIn,WindSpeedMaxMPH,WindSpeedAvgMPH,GustSpeedMaxMPH,PrecipitationSumIn
2013-1-8,53,49,42,49,46,39,95,90,82,30.08,29.78,31,8,31,0.86
2013-1-9,50,40,34,47,38,33,94,91,84,30.01,29.73,21,4,21,1.44
2013-1-10,38,36,31,35,33,29,93,89,84,30.19,30.00,10,1,10,0.05
2013-1-11,34,30,27,30,27,25,93,90,81,30.40,30.18,8,1,8,0.01
2013-1-12,36,30,27,29,26,24,94,85,64,30.52,30.39,14,1,14,0.00
2013-1-13,36,30,25,29,26,23,92,85,63,30.57,30.51,6,0,6,0.01
2013-1-14,34,33,33,30,29,28,86,85,83,30.59,30.54,9,0,9,0.00
2013-1-17,37,36,33,35,34,31,94,93,91,30.45,30.37,3,0,3,0.01
2013-1-18,36,33,31,35,32,30,95,95,94,30.42,30.34,10,1,10,0.00
2013-1-19,35,33,30,33,31,29,95,94,93,30.46,30.41,10,1,10,0.00
2013-1-20,40,34,31,36,32,30,96,93,85,30.47,30.34,9,1,9,0.00
2013-1-21,34,32,29,34,31,28,96,95,94,30.35,30.21,6,0,6,0.01
2013-1-22,39,34,30,35,32,29,95,92,81,30.22,29.97,5,0,5,0.00
2013-1-23,43,40,37,40,37,31,93,87,69,30.20,29.91,12,1,12,0.31
2013-1-24,45,43,41,40,38,35,93,84,68,30.28,30.11,11,0,11,0.17
2013-1-25,51,45,42,45,42,39,95,88,75,30.12,29.99,15,1,15,0.03
2013-1-26,45,42,40,41,39,37,92,87,82,30.10,29.95,15,2,15,0.43
2013-1-27,42,41,40,39,37,36,92,88,83,30.12,30.05,18,3,18,0.14
2013-1-28,42,41,39,40,39,37,93,92,90,30.15,30.07,12,1,12,0.42
2013-1-29,47,44,42,45,42,40,94,93,90,30.40,30.15,16,2,16,0.50
2013-1-30,47,46,44,46,45,42,96,95,93,30.44,30.39,9,1,9,0.12
2013-1-31,49,47,45,45,44,44,96,92,83,30.46,30.36,17,2,17,0.11
2013-2-1,52,45,42,45,43,40,95,91,75,30.48,30.39,13,1,13,0.00
2013-2-2,42,40,38,40,38,36,95,93,89,30.45,30.32,10,1,10,0.00
2013-2-3,47,44,38,43,41,37,99,91,83,30.37,30.27,8,0,8,0.10
2013-2-4,51,46,44,43,42,41,92,84,70,30.28,29.95,12,0,12,0.01
2013-2-5,51,46,44,43,42,40,92,85,70,30.00,29.90,22,4,22,0.17
2013-2-6,50,46,43,42,40,38,87,82,65,30.11,29.85,19,4,19,0.09
2013-2-7,50,44,38,40,37,33,92,77,55,30.26,29.85,24,3,24,0.01
2013-2-8,45,39,34,38,35,33,94,86,72,30.38,30.26,5,0,5,0.00
2013-2-9,44,42,40,40,38,36,93,89,81,30.41,30.33,5,0,5,0.00
2013-2-10,47,40,34,39,36,32,95,87,65,30.45,30.38,11,0,11,0.00
2013-2-11,47,43,40,41,39,38,93,86,74,30.43,30.39,8,0,8,0.06
2013-2-12,50,46,43,46,43,40,94,89,81,30.47,30.35,23,3,23,0.04
2013-2-13,48,45,44,45,42,40,93,88,82,30.57,30.37,11,1,11,0.04
2013-2-14,48,45,43,44,42,40,93,89,80,30.63,30.55,14,1,14,0.07
2013-2-15,54,45,40,45,41,38,95,88,68,30.62,30.24,11,1,11,0.00
2013-2-16,54,44,39,43,41,37,95,88,60,30.27,30.16,19,3,19,0.22
2013-2-17,45,42,40,39,37,35,91,83,75,30.32,30.18,14,1,14,0.02
2013-2-18,45,42,38,38,37,35,90,82,69,30.18,29.82,12,1,12,0.00
2013-2-19,49,42,36,39,36,33,92,79,61,30.08,29.80,16,2,16,0.00
2013-2-20,44,37,36,39,25,-100,93,80,78,30.11,30.00,16,-81,16,0.15
2013-2-21,44,42,39,40,38,37,93,86,80,30.13,30.07,24,4,24,0.17
2013-2-22,46,43,39,42,38,33,89,83,71,30.11,29.74,33,8,33,0.10
2013-2-23,49,43,39,38,36,34,85,77,60,30.44,29.96,15,2,15,0.10
2013-2-24,47,44,41,38,36,34,82,73,62,30.44,30.01,23,4,23,0.00
2013-2-25,52,44,40,39,36,31,88,74,49,30.38,29.95,26,5,26,0.10
2013-2-26,47,43,38,37,35,32,84,72,56,30.42,30.26,18,2,18,0.01
2013-2-27,49,44,41,42,40,36,94,86,67,30.38,30.27,14,0,14,0.34
2013-2-28,52,46,42,49,44,40,95,93,90,30.38,30.25,19,2,19,0.25
2013-3-1,57,53,49,50,49,47,95,85,76,30.42,30.34,23,4,23,0.25
2013-3-2,56,49,38,48,44,35,95,83,71,30.34,30.13,22,4,22,0.00
2013-3-3,49,41,36,38,35,32,93,80,54,30.38,30.27,16,2,16,0.00
2013-3-4,55,42,32,37,32,26,92,71,39,30.38,29.99,12,2,12,0.00
2013-3-5,50,45,40,40,36,28,88,71,55,30.00,29.79,11,2,11,0.00
2013-3-6,43,42,41,41,39,37,92,89,81,29.96,29.65,15,3,15,0.91
2013-3-7,52,44,40,44,40,38,94,87,68,30.16,29.96,12,0,12,0.14
2013-3-8,53,42,34,43,37,32,95,85,63,30.31,30.15,13,2,13,0.14
2013-3-9,55,42,33,42,37,32,95,81,51,30.57,30.31,7,0,7,0.00
2013-3-10,48,43,38,41,38,35,93,86,70,30.57,30.50,7,0,7,0.01
2013-3-11,52,46,42,45,42,40,93,85,66,30.51,30.26,7,0,7,0.01
2013-3-12,55,51,47,50,47,45,93,87,73,30.23,30.13,26,7,26,0.04
2013-3-13,52,50,50,50,48,47,93,90,86,30.27,30.16,28,4,28,0.31
2013-3-14,53,50,47,48,46,43,95,88,71,30.22,30.09,17,2,17,0.06
2013-3-15,60,52,47,49,47,44,94,84,67,30.28,30.20,16,2,16,0.06
2013-3-16,50,46,39,45,41,34,88,82,66,30.20,29.94,23,5,23,0.03
2013-3-17,49,42,38,37,35,32,90,77,55,30.26,30.04,16,3,16,0.07
2013-3-18,52,44,40,40,36,34,91,75,52,30.31,30.17,26,3,26,0.04
2013-3-19,56,43,36,40,36,32,91,78,41,30.30,29.66,18,2,18,0.36
2013-3-20,51,46,38,48,41,33,94,81,65,30.08,29.45,31,6,31,0.55
2013-3-21,47,40,37,38,34,32,90,81,60,30.29,30.08,16,2,16,0.18
2013-3-22,46,39,34,35,32,28,92,77,53,30.45,30.28,16,1,16,0.05
2013-3-23,50,40,34,33,30,24,89,68,38,30.47,30.37,11,1,11,0.05
2013-3-24,55,42,32,38,32,29,89,70,40,30.37,30.19,7,0,7,0.00
2013-3-25,61,48,37,41,34,29,81,59,33,30.20,29.99,11,2,11,0.00
2013-3-26,60,50,44,43,39,-100,83,68,41,30.08,29.97,10,1,10,0.00
2013-3-27,57,49,45,47,42,39,93,80,59,30.06,30.00,11,0,11,0.03
2013-3-28,62,51,43,48,45,42,94,82,54,30.22,30.05,11,0,11,0.02
2013-3-29,64,52,44,49,45,42,93,79,55,30.32,30.21,12,1,12,0.02
2013-3-30,62,52,42,48,45,40,93,79,59,30.33,30.14,14,3,14,0.00
2013-3-31,66,53,43,49,45,40,93,75,51,30.14,29.97,12,2,12,0.00
2013-4-1,62,53,46,49,46,44,92,80,60,30.22,30.03,17,2,17,0.00
2013-4-2,56,52,48,48,46,44,88,80,72,30.27,30.21,14,1,14,0.00
2013-4-3,62,53,45,48,45,43,93,77,54,30.26,30.01,7,1,7,0.00
2013-4-4,56,52,49,53,49,45,95,89,81,30.01,29.71,19,1,19,0.45
2013-4-5,58,52,48,50,48,45,92,85,71,29.94,29.78,24,5,24,0.16
2013-4-6,52,48,45,47,44,41,92,84,74,29.99,29.76,23,5,23,0.39
2013-4-7,46,43,40,43,40,37,92,89,87,29.96,29.57,17,2,17,0.60
2013-4-8,54,47,43,46,43,40,92,85,68,30.34,29.95,12,1,13,0.66
2013-4-9,54,49,44,45,42,39,89,77,58,30.42,30.25,10,1,10,0.00
2013-4-10,59,52,48,50,46,42,92,80,68,30.32,30.00,24,4,24,0.25
2013-4-11,53,48,44,44,40,36,92,74,53,30.37,30.26,15,2,15,0.11
2013-4-12,46,44,41,43,39,36,92,83,70,30.26,29.74,21,3,21,0.26
2013-4-13,47,42,37,42,38,34,92,84,74,30.07,29.83,24,3,24,0.52
2013-4-14,54,46,40,40,38,33,97,75,50,30.08,29.98,14,2,14,0.62
2013-4-15,54,46,40,42,39,37,91,79,57,30.25,30.01,22,2,22,0.00
2013-4-16,55,46,38,42,38,34,94,77,53,30.47,30.25,20,1,20,0.04
2013-4-17,60,48,38,45,38,33,90,71,38,30.53,30.46,13,2,13,0.04
2013-4-18,51,47,44,47,42,38,91,83,74,30.53,30.27,18,2,18,0.23
2013-4-19,54,50,48,51,48,46,94,92,88,30.27,30.13,20,3,20,0.54
2013-4-20,54,49,46,48,45,43,93,87,74,30.34,30.26,14,2,14,0.31
2013-4-21,54,47,44,44,42,38,93,81,63,30.44,30.30,18,2,18,0.15
2013-4-22,58,48,39,43,38,32,93,69,41,30.59,30.44,16,3,16,0.15
2013-4-23,61,49,37,44,38,32,90,66,36,30.50,30.31,14,2,14,0.00
2013-4-24,66,49,41,45,41,38,90,76,41,30.40,30.28,7,1,7,0.00
2013-5-20,67,59,49,52,49,46,92,71,51,30.33,29.97,17,3,17,0.00
2013-5-21,56,50,46,49,45,43,91,82,66,29.98,29.84,20,2,20,0.06
2013-5-22,53,48,45,46,44,41,92,85,73,30.01,29.91,13,2,13,0.02
2013-5-23,58,50,45,46,44,41,91,79,55,30.09,29.96,18,1,18,0.01
2013-5-24,63,54,47,50,46,43,91,74,52,30.12,30.03,14,1,14,0.02
2013-5-25,65,56,51,49,46,43,86,72,50,30.11,30.03,11,2,11,0.02
2013-5-26,64,56,51,54,50,47,92,81,65,30.06,30.01,14,1,14,0.06
2013-5-27,59,56,52,55,52,49,91,86,79,30.03,29.78,13,1,13,0.25
2013-5-28,63,56,52,52,49,46,89,77,63,29.95,29.83,17,2,17,0.25
2013-5-29,61,54,50,51,49,47,95,83,64,30.04,29.75,19,2,19,0.07
2013-5-30,62,55,50,49,47,44,85,74,57,30.32,30.03,19,4,19,0.09
2013-5-31,68,58,52,50,47,43,84,68,43,30.41,30.31,18,2,18,0.00
2013-6-1,72,60,52,53,48,45,83,67,42,30.32,30.12,17,3,17,0.00
2013-6-2,70,61,53,55,51,48,88,70,49,30.16,30.10,12,1,12,0.06
2013-6-3,71,61,51,57,52,48,92,74,50,30.19,30.12,12,2,12,0.00
2013-6-4,76,65,52,58,53,48,90,68,51,30.20,30.08,13,2,13,0.00
2013-6-5,74,64,55,61,54,48,83,70,57,30.16,30.09,14,3,14,0.00
2013-6-6,78,65,54,57,52,45,89,66,39,30.13,30.06,14,2,14,0.00
2013-6-7,68,61,56,56,49,44,77,66,49,30.22,30.09,17,2,17,0.00
2013-6-8,68,59,53,53,49,46,80,70,56,30.26,30.16,13,1,13,0.00
2013-6-9,67,42,52,51,7,-100,84,50,53,30.18,30.09,17,-278,17,0.00
2013-6-10,70,46,50,51,11,-100,82,46,42,30.11,29.94,11,-250,11,0.00
2013-6-11,67,32,55,53,-23,-100,82,33,48,30.17,30.00,18,-475,18,0.14
2013-6-12,68,39,56,51,-7,-100,84,37,47,30.21,30.16,18,-365,18,0.01
2013-6-13,67,26,57,52,-37,-100,77,28,52,30.24,30.20,12,-575,12,0.01
2013-6-17,78,62,60,54,32,-100,76,45,37,30.05,29.94,16,-121,16,0.00
2013-6-18,75,46,59,54,1,-100,76,35,34,30.04,29.93,16,-321,16,0.00
2013-6-19,66,60,55,55,51,48,82,73,58,30.08,29.98,13,1,13,0.00
2013-6-20,60,56,53,55,51,48,93,84,70,30.18,30.02,13,2,13,1.11
2013-6-21,70,61,53,54,52,49,92,75,53,30.23,30.18,9,1,9,1.12
2013-6-22,79,66,54,57,53,51,91,67,39,30.19,29.91,14,2,14,0.00
2013-6-23,72,66,60,62,58,53,91,76,65,29.91,29.66,7,1,7,0.15
2013-6-24,70,63,57,60,55,52,92,78,57,29.76,29.64,16,2,16,0.06
2013-6-25,76,63,57,59,56,52,92,79,46,29.92,29.74,30,1,30,0.27
2013-6-26,73,64,58,61,57,55,93,79,58,30.14,29.91,15,2,15,0.31
2013-6-27,72,65,60,63,60,56,92,83,70,30.26,30.11,8,0,8,0.03
2013-6-28,89,74,62,67,63,59,92,71,43,30.26,30.09,13,2,13,0.03
2013-6-29,85,73,66,68,62,58,84,68,47,30.17,30.05,13,2,13,0.00
2013-6-30,87,76,63,70,64,55,80,67,52,30.07,29.90,13,2,13,0.00
2013-7-1,87,76,67,70,63,58,79,65,51,30.08,29.97,13,3,13,0.00
2013-7-2,79,69,62,62,57,51,84,67,44,30.17,30.08,13,2,13,0.00
2013-7-3,77,67,59,58,53,47,72,61,42,30.22,30.10,14,3,14,0.00
2013-7-4,72,63,57,55,53,50,82,69,52,30.19,30.09,7,1,12,0.00
2013-7-5,73,65,56,57,54,51,85,70,54,30.11,30.01,11,1,11,0.00
2013-7-6,78,68,57,60,56,53,88,69,47,30.05,29.92,10,2,10,0.00
2013-7-7,77,67,59,61,57,53,85,72,55,30.02,29.93,13,1,13,0.00
2013-7-8,80,67,56,61,56,52,85,70,45,30.16,30.00,14,2,14,0.00
2013-7-9,81,71,60,63,58,52,85,65,48,30.17,30.06,14,2,14,0.00
2013-7-10,73,64,58,58,54,49,80,70,56,30.12,30.01,14,2,14,0.00
2013-7-11,70,61,56,53,50,48,76,67,49,30.16,30.06,16,3,16,0.00
2013-7-12,67,60,53,53,50,47,79,70,57,30.17,30.08,6,0,6,0.00
2013-7-13,74,64,52,54,51,46,87,63,46,30.27,30.17,13,3,13,0.00
2013-7-14,81,67,54,58,52,47,85,59,33,30.20,30.05,16,3,16,0.00
2013-7-15,77,68,57,58,53,49,82,61,45,30.12,29.96,16,4,16,0.00
2013-7-16,83,72,61,62,56,49,72,57,41,29.97,29.85,13,3,13,0.00
2013-7-17,72,66,61,60,56,53,84,71,52,30.25,29.94,20,2,20,0.04
2013-7-18,79,66,58,61,56,53,85,71,51,30.30,30.18,14,2,14,0.00
2013-7-19,79,66,56,64,58,53,90,75,54,30.24,30.09,13,2,13,0.00
2013-7-20,78,64,56,63,57,52,92,78,54,30.15,30.01,10,2,10,0.00
2013-7-21,77,65,57,62,57,54,91,77,57,30.05,29.96,11,1,11,0.00
2013-7-22,79,66,56,64,57,54,92,75,48,30.13,30.00,10,2,10,0.00
2013-7-23,82,70,59,64,58,54,86,67,44,30.13,30.02,12,3,12,0.00
2013-7-24,82,71,60,62,56,50,81,61,41,30.12,30.05,13,2,13,0.00
2013-7-25,81,70,58,60,55,50,78,60,44,30.16,30.09,14,2,14,0.00
2013-7-26,66,17,58,54,-56,-100,83,22,66,30.20,-32.77,7,-713,7,0.00
2013-7-27,-200,0,200,-100,-100,-100,0,0,100,0.00,-32.77,0,-999,0,0.00
2013-7-28,-200,0,200,-100,-100,-100,0,0,100,0.00,-32.77,0,-999,0,0.00
2013-7-29,58,1,58,51,-98,-100,80,1,80,29.99,-32.77,0,-987,1,0.00
2013-8-1,67,64,61,56,55,54,80,72,67,30.13,30.09,15,2,15,0.00
2013-8-2,61,60,58,58,56,54,92,86,80,30.19,30.12,17,2,17,0.21
2013-8-3,76,66,60,61,59,57,93,80,57,30.20,30.11,11,2,11,0.00
2013-8-4,80,69,58,65,60,54,90,73,58,30.13,29.99,12,3,12,0.00
2013-8-5,82,70,60,64,59,54,89,71,51,30.07,29.98,11,2,11,0.00
2013-8-6,87,71,58,64,57,51,86,62,33,30.07,29.96,10,2,10,0.00
2013-8-7,85,71,59,64,58,54,86,64,40,30.08,29.99,13,2,13,0.00
2013-8-8,83,69,59,64,58,54,88,70,48,30.10,30.00,12,1,12,0.00
2013-8-9,83,71,60,64,57,54,81,63,45,30.02,29.89,10,1,10,0.00
2013-8-10,78,68,60,64,60,56,90,77,56,30.06,29.94,14,2,14,0.09
2013-8-11,76,66,58,60,56,53,85,70,48,30.13,30.04,14,2,14,0.01
2013-8-12,80,67,59,61,56,54,85,69,46,30.14,30.05,14,1,14,0.00
2013-8-13,83,68,59,61,56,54,86,67,40,30.17,29.98,13,2,13,0.00
2013-8-14,74,64,59,60,57,55,89,80,62,30.01,29.99,10,0,10,0.00
2013-8-15,69,67,63,65,63,60,91,87,83,30.06,30.02,7,0,7,0.05
2013-8-16,84,70,62,62,59,46,95,73,27,30.07,29.99,13,1,13,0.00
2013-8-17,78,70,63,62,58,55,79,67,52,30.14,30.06,15,2,15,0.00
2013-8-18,78,67,61,62,57,52,82,69,52,30.19,30.13,19,3,19,0.00
2013-8-19,79,68,62,62,56,51,76,66,49,30.18,30.12,18,2,18,0.00
2013-8-20,73,65,58,57,53,50,79,65,51,30.23,30.13,15,3,15,0.00
2013-8-21,79,68,56,61,55,50,84,65,48,30.16,29.99,13,3,13,0.00
2013-8-22,84,72,59,65,57,53,82,61,40,30.01,29.85,9,1,9,0.00
2013-8-23,74,67,62,58,56,55,82,68,53,29.96,29.88,18,3,18,0.00
2013-8-24,75,66,61,59,56,52,84,70,48,29.99,29.91,14,2,14,0.00
2013-8-25,74,64,56,59,56,53,90,74,54,30.01,29.93,9,1,9,0.02
2013-8-26,75,66,62,62,58,52,86,75,46,30.02,29.91,7,1,16,0.06
2013-8-27,80,69,62,62,59,56,86,71,51,30.02,29.84,10,2,14,0.01
2013-8-28,80,70,61,65,61,56,94,76,53,29.95,29.89,4,1,7,0.22
2013-8-29,75,68,65,66,63,61,93,86,70,30.08,29.92,6,1,9,0.60
2013-8-30,80,69,63,63,58,52,89,69,39,30.20,30.08,15,3,15,0.00
2013-8-31,77,67,58,63,58,55,91,75,58,30.15,29.90,14,3,14,0.00
2013-9-1,82,70,59,62,59,56,90,70,47,29.96,29.85,12,1,12,0.00
2013-9-2,83,71,61,60,58,56,89,66,45,30.01,29.91,14,2,14,0.00
2013-9-3,75,66,62,63,61,59,92,83,63,30.09,29.99,10,1,10,0.23
2013-9-4,70,64,61,62,60,57,91,86,74,30.12,30.05,12,1,12,0.01
2013-9-5,67,63,60,61,59,57,94,87,80,30.11,29.96,16,2,16,0.43
2013-9-6,72,64,60,63,60,59,95,87,69,30.17,30.00,12,1,12,0.63
2013-9-7,76,66,62,62,60,58,90,81,61,30.17,30.08,12,1,12,0.00
2013-9-8,81,67,59,64,60,57,94,79,50,30.18,30.08,8,1,8,0.00
2013-9-9,78,66,58,64,60,56,94,82,60,30.14,30.03,13,2,13,0.00
2013-9-10,77,66,57,65,60,55,95,81,64,30.07,29.94,15,3,15,0.00
2013-9-11,88,74,61,70,63,57,90,70,44,30.01,29.91,11,2,11,0.00
2013-9-12,80,68,60,65,61,57,92,78,54,30.07,29.95,9,1,9,0.00
2013-9-13,65,61,60,60,58,57,94,91,84,30.04,29.99,6,0,6,0.00
2013-9-16,70,62,58,60,57,53,87,82,68,30.00,29.94,20,4,20,0.02
2013-9-17,62,59,57,54,53,51,88,79,68,30.00,29.93,10,0,10,0.00
2013-9-18,62,57,56,54,53,51,90,85,70,30.13,30.00,10,1,10,0.00
2013-9-19,80,72,60,59,54,50,80,56,39,29.97,29.82,4,0,4,0.00
2013-9-20,76,63,56,56,54,51,88,73,45,29.82,29.65,17,1,17,0.05
2013-9-21,70,62,56,57,54,52,89,77,58,29.79,29.71,13,1,13,0.00
2013-9-22,62,59,56,55,53,49,90,82,66,29.80,29.64,19,6,24,0.28
2013-9-23,61,57,53,54,51,47,89,81,71,30.03,29.80,25,4,25,0.17
2013-9-24,64,56,51,51,48,44,90,78,52,30.02,29.90,13,2,13,0.02
2013-9-25,59,53,49,50,48,46,92,84,63,30.10,29.92,17,3,17,0.07
2013-9-26,63,44,48,52,20,-100,96,64,56,30.19,30.09,10,-193,10,0.00
2013-9-27,55,11,52,49,-68,-100,90,18,79,30.18,29.91,16,-785,16,0.00
2013-9-28,61,28,54,58,-27,-100,94,43,85,29.91,29.40,27,-524,27,1.32
2013-9-29,57,28,53,52,-23,-100,87,42,74,29.62,29.22,24,-482,24,0.32
2013-9-30,57,29,51,50,-21,-100,85,43,76,29.99,29.47,25,-456,25,0.07
2013-10-1,51,50,49,46,45,44,86,83,80,30.01,29.97,16,4,16,0.00
2013-10-7,62,56,53,49,47,45,84,72,56,30.07,30.01,19,4,19,0.02
2013-10-8,56,51,46,48,45,43,91,80,66,30.14,30.03,17,2,17,0.43
2013-10-9,59,49,42,46,44,40,93,83,60,30.20,30.02,6,0,6,0.01
2013-10-10,58,51,47,50,47,44,91,86,70,30.14,30.00,9,1,9,0.01
2013-10-11,54,52,49,50,48,47,95,89,81,30.20,30.13,6,0,13,0.08
2013-10-12,56,51,46,49,48,44,94,88,75,30.28,30.13,16,2,16,0.05
2013-10-13,58,50,45,48,46,43,95,86,67,30.43,30.28,10,1,10,0.01
2013-10-14,60,49,42,48,44,40,95,85,61,30.50,30.42,9,1,9,0.00
2013-10-15,62,50,44,51,46,42,94,85,68,30.46,30.24,6,1,13,0.00
2013-10-16,55,51,47,49,47,44,95,87,79,30.27,30.21,12,1,12,0.00
2013-10-17,59,51,47,50,47,45,96,86,72,30.32,30.27,7,0,7,0.00
2013-10-18,60,49,43,52,46,42,96,89,72,30.32,30.21,10,1,10,0.01
2013-10-19,50,47,44,48,45,43,96,93,89,30.26,30.21,7,0,7,0.00
2013-10-20,50,48,46,47,45,44,94,92,88,30.28,30.22,7,0,7,0.00
2013-10-21,51,48,46,48,46,44,94,92,88,30.24,30.17,5,0,6,0.00
2013-10-22,58,49,46,52,47,44,95,92,77,30.19,30.10,10,1,13,0.00
2013-10-23,59,48,44,52,46,43,100,92,78,30.13,30.04,6,0,6,0.00
2013-10-24,50,48,45,49,46,44,96,94,91,30.19,30.08,5,0,5,0.01
2013-10-25,52,49,47,48,46,45,95,91,86,30.39,30.19,6,0,6,0.01
2013-10-26,53,50,47,47,46,45,94,85,78,30.40,30.26,14,1,14,0.00
2013-10-27,56,50,46,49,46,44,96,87,74,30.27,29.97,20,3,20,0.11
2013-10-28,56,50,43,44,40,35,93,72,47,30.02,29.94,26,4,26,0.00
2013-10-29,58,45,37,41,38,35,91,79,51,30.10,30.01,6,0,6,0.00
2013-10-30,56,47,38,47,42,36,93,81,68,30.19,30.09,19,1,19,0.01
2013-10-31,55,52,50,50,47,43,92,85,73,30.33,30.16,16,1,16,0.00
2013-11-1,60,54,51,51,49,48,94,84,68,30.34,29.90,10,0,10,0.00
2013-11-2,55,50,45,51,45,39,94,82,67,29.95,29.54,43,5,43,0.59
2013-11-3,53,45,42,42,40,37,90,82,56,30.18,29.94,12,1,12,0.08
2013-11-4,50,44,38,41,38,35,94,81,58,30.26,30.12,9,0,9,0.05
2013-11-5,50,46,44,47,44,40,96,90,84,30.33,30.08,11,1,11,0.05
2013-11-6,51,48,44,47,44,42,93,87,78,30.39,30.09,6,0,6,0.07
2013-11-7,51,49,48,49,47,44,94,90,79,30.09,29.77,24,4,24,0.90
2013-11-8,53,37,48,45,5,-100,86,58,70,30.20,-32.77,14,-267,14,0.00
2013-11-9,-200,0,200,-100,-100,-100,0,0,100,0.00,-32.77,0,-999,0,0.00
2013-11-10,-200,0,200,-100,-100,-100,0,0,100,0.00,-32.77,0,-999,0,0.00
2013-11-11,-200,0,200,-100,-100,-100,0,0,100,0.00,-32.77,0,-999,0,0.00
2013-11-12,58,30,49,51,-17,-100,93,47,79,30.42,-32.77,15,-447,15,0.03
2013-11-13,55,52,49,50,48,47,92,88,77,30.50,30.37,15,1,15,0.00
2013-11-14,49,46,44,47,44,42,95,92,88,30.37,30.12,7,0,7,0.14
2013-11-15,48,45,44,46,42,40,95,89,83,30.13,29.39,27,4,30,0.37
2013-11-16,48,28,42,43,-16,-100,92,47,67,29.83,29.40,19,-391,19,0.00
2013-11-17,52,22,46,46,-34,-100,90,38,79,29.96,29.83,26,-540,26,0.00
2013-11-18,50,4,50,48,-89,-100,92,7,92,29.96,29.61,4,-927,4,0.41
2013-11-19,45,26,39,39,-22,-100,80,37,51,30.13,29.60,24,-393,24,0.03
2013-11-20,42,37,33,32,28,26,81,71,52,30.58,30.13,22,2,22,0.00
2013-11-21,43,35,30,29,28,26,88,75,52,30.74,30.58,13,2,13,0.00
2013-11-22,46,38,31,33,30,26,89,75,50,30.73,30.52,14,3,14,0.00
2013-11-23,50,40,34,38,33,29,87,77,51,30.52,30.26,15,2,15,0.00
2013-11-24,52,42,35,42,37,32,92,84,65,30.32,30.24,5,0,7,0.00
2013-11-25,52,41,34,43,37,32,93,85,65,30.35,30.32,5,0,5,0.00
2013-11-26,50,43,36,44,40,34,94,87,74,30.34,30.16,6,0,6,0.00
2013-11-27,55,46,40,45,41,37,91,81,64,30.16,30.02,11,1,11,0.00
2013-11-28,48,40,35,45,38,34,95,93,87,30.25,30.09,5,0,5,0.01
2013-11-29,47,44,39,45,42,37,95,92,86,30.38,30.24,12,1,12,0.01
2013-11-30,51,49,46,47,44,43,92,85,78,30.40,30.15,18,2,18,0.08
2013-12-1,54,51,42,50,47,38,94,85,78,30.15,29.80,27,5,27,0.01
2013-12-2,45,40,36,39,34,32,92,82,60,30.12,29.87,14,2,14,0.16
2013-12-3,39,35,30,33,27,23,88,72,57,30.39,30.12,20,6,20,0.00
2013-12-4,39,32,28,29,26,24,91,80,60,30.42,30.30,6,1,9,0.00
2013-12-5,34,29,25,26,22,14,92,75,53,30.40,30.27,19,2,19,0.00
2013-12-6,30,5,26,16,-78,-100,59,11,51,30.27,-32.77,16,-810,16,0.00
2013-12-7,-200,0,200,-100,-100,-100,0,0,100,0.00,-32.77,0,-999,0,0.00
2013-12-8,-200,0,200,-100,-100,-100,0,0,100,0.00,-32.77,0,-999,0,0.00
2013-12-9,33,22,26,28,-14,-100,81,48,59,30.65,-32.77,5,-297,5,0.00
2013-12-10,39,36,33,33,31,26,85,81,76,30.57,30.48,6,0,6,0.00
2013-12-11,40,35,30,34,32,28,92,87,77,30.49,30.23,5,0,5,0.00
2013-12-12,42,38,34,40,36,31,94,90,72,30.24,30.11,14,1,14,0.19
2013-12-13,48,45,42,46,43,40,94,93,90,30.48,30.19,10,0,10,0.02
2013-12-14,48,46,44,44,43,42,92,88,83,30.50,30.38,16,1,16,0.02
2013-12-15,50,48,46,47,45,43,94,91,83,30.52,30.38,18,2,18,0.15
2013-12-16,48,44,39,45,42,38,95,93,85,30.57,30.34,7,0,7,0.15
2013-12-17,45,41,39,42,39,38,96,92,86,30.35,30.18,12,1,12,0.01
2013-12-18,44,43,42,41,41,39,91,90,88,30.20,30.14,14,1,14,0.12
2013-12-19,39,35,30,29,27,24,87,73,57,30.42,30.27,5,0,5,0.00
2013-12-20,41,36,32,40,34,28,95,90,80,30.27,29.78,25,2,25,0.45
2013-12-21,44,42,39,42,40,37,95,94,93,30.23,29.90,9,0,9,0.16
2013-12-22,49,47,44,47,45,42,96,96,92,30.36,30.22,18,1,18,0.26
2013-12-23,54,48,43,48,45,39,94,88,78,30.58,30.18,28,5,28,0.02
2013-12-24,46,40,35,42,37,33,95,90,79,30.70,30.58,7,0,7,0.02
2013-12-25,39,22,32,38,-16,-100,95,59,90,30.61,30.46,5,-370,5,0.00
2013-12-26,43,12,39,39,-59,-100,92,26,85,30.48,30.27,4,-705,4,0.00
2013-12-27,45,14,38,43,-53,-100,96,31,86,30.44,30.18,21,-665,21,0.04
2013-12-28,47,17,43,44,-47,-100,95,34,86,30.59,30.44,6,-627,6,0.01
2013-12-29,42,14,38,40,-53,-100,96,31,88,30.55,30.38,4,-658,4,0.01
2013-12-30,43,9,42,41,-70,-100,93,20,90,30.39,30.19,7,-783,7,0.00
2013-12-31,45,14,44,43,-56,-100,94,29,92,30.45,30.25,7,-689,7,0.00
2014-1-1,43,16,37,41,-45,-100,96,37,91,30.48,30.31,4,-606,4,0.00
2014-1-2,44,4,43,42,-88,-100,94,8,92,30.31,30.16,13,-914,13,0.00